Temperature
13 13 13 13 13 13 13 13 13 13 13 12 12 12 12 12 12 12 11 11 11 11 11 11 11 11 11 11 11 11 11 11 11 11 11 11 11 11 11 11 11 11 11
13 13 13 13 13 13 13 12 12 12 12 12 12 12 12 12 12 11 11 11 11 11 11 11 10 10 10 10 10 10 11 11 11 11 11 11 11 11 11 11 11 11 11
12 12 12 13 12 12 12 12 12 12 12 12 12 12 12 11 11 11 11 11 11 10 10 10 10 10 10 10 10 10 10 10 10 10 10 10 10 10 10 10 10 10 10
12 12 12 12 12 12 12 12 12 12 12 11 11 11 11 11 11 11 11 10 10 10 10 10 10 10 10 10 10 10 10 10 9 9 9 9 9 9 9 9 9 9 10
12 12 12 12 12 12 12 11 11 11 11 11 11 11 11 11 11 10 10 10 10 10 10 10 10 10 10 10 9 9 9 9 9 9 9 9 9 9 9 9 9 9 9
11 11 11 11 11 11 11 11 11 11 11 11 11 10 10 10 10 10 10 10 9 9 9 9 9 9 9 9 9 9 9 9 8 8 8 8 8 8 8 8 8 8 8
11 11 11 11 11 11 11 11 11 11 10 10 10 10 10 10 10 9 9 9 9 9 9 9 9 9 9 9 9 9 8 8 8 8 8 8 8 8 8 8 8 8 8
10 10 10 10 10 10 10 10 10 10 10 10 10 10 9 9 9 9 9 9 9 9 9 9 9 8 8 8 8 8 8 8 8 7 7 7 7 7 7 7 7 7 7
10 10 10 10 10 10 10 10 10 10 9 9 9 9 9 9 8 8 9 8 8 8 8 8 8 8 8 8 8 8 8 8 7 7 7 7 7 7 7 7 7 7 7
10 9 9 9 9 9 9 9 9 9 9 9 9 9 9 8 8 8 8 8 8 8 8 8 8 8 8 7 7 7 7 7 7 7 7 6 6 6 6 6 6 6 6
9 9 9 9 9 9 9 9 9 9 9 8 8 8 8 8 8 7 7 8 8 8 7 7 7 7 7 7 7 7 7 7 7 7 6 6 6 6 6 6 6 6 6
9 9 9 9 9 8 8 8 9 8 8 8 8 8 8 7 7 7 7 7 7 8 7 7 7 7 7 7 6 6 6 6 6 6 6 6 6 6 6 6 6 5 5
8 8 8 8 8 8 8 8 8 8 8 8 7 7 7 7 7 6 6 6 6 6 7 7 7 6 6 6 6 6 6 6 6 6 6 6 5 5 5 5 5 5 5
8 8 8 8 8 8 8 8 8 8 8 7 7 7 7 6 6 6 6 6 5 5 6 6 6 6 6 6 5 5 6 5 5 5 5 5 5 5 5 5 5 5 5
7 7 7 7 7 7 7 7 7 7 7 7 7 6 6 6 6 5 5 5 5 4 5 5 5 5 5 5 5 5 5 5 5 5 5 5 5 5 5 5 4 4 4
7 7 7 7 7 7 7 7 7 7 7 7 6 6 6 6 6 5 5 5 5 4 4 5 5 5 5 5 4 4 4 4 4 4 4 4 4 4 4 4 4 4 4
7 7 7 7 7 7 7 7 6 6 6 6 6 6 6 5 5 5 5 5 4 4 4 4 4 4 4 4 4 4 4 4 4 4 4 4 4 4 4 4 4 4 4
6 6 6 6 6 6 6 6 6 6 6 6 5 5 5 5 5 5 4 4 4 4 3 4 4 4 4 4 4 4 4 3 3 3 4 3 3 3 3 3 3 3 3
6 6 6 6 6 6 6 6 6 5 5 5 5 5 5 5 5 4 4 4 4 3 3 3 3 3 3 3 3 3 3 3 3 3 3 3 3 3 3 3 3 3 3
6 6 6 6 5 5 5 5 5 5 5 5 5 4 4 4 4 4 4 3 3 3 3 2 2 3 2 2 2 3 3 3 3 3 3 3 3 3 3 2 2 2 2
5 5 5 5 5 5 5 5 5 5 4 4 4 4 4 4 3 3 3 3 3 2 2 2 2 2 2 2 2 2 2 2 2 2 2 2 2 2 2 2 2 2 2
5 5 5 5 4 4 4 4 4 4 4 4 4 3 3 3 3 3 3 2 2 2 2 1 1 1 1 1 1 1 1 1 1 1 1 2 1 2 2 2 2 1 1
5 4 4 4 4 4 4 4 4 3 3 3 3 3 3 3 2 2 2 2 2 1 1 1 1 1 1 1 0 0 0 0 0 0 0 1 1 1 1 1 1 1 1
4 4 4 4 4 4 3 3 3 3 3 3 3 2 2 2 2 2 1 1 1 1 1 1 1 0 0 0 -0 -0 -1 -0 -0 0 -0 -0 1 1 1 1 1 1 0
3 3 3 3 3 3 3 3 2 2 2 2 2 2 2 2 1 1 1 1 1 1 0 0 0 -0 -0 -0 -1 -1 -1 -1 -1 -1 -1 -1 -1 -0 0 0 0 0 -0
3 3 3 3 3 3 2 2 2 2 2 2 2 1 1 1 1 1 0 0 0 0 0 -0 -0 -0 -1 -1 -1 -1 -1 -2 -2 -2 -1 -2 -2 -2 -2 -1 -1 -1 -1
Wind_Speed
3 3 3 4 4 4 4 4 4 4 4 4 4 4 4 4 4 4 4 6 6 6 6 5 5 4 3 3 3 4 3 4 5 5 5 5 5 5 5 6 6 6 6
4 3 3 3 3 3 3 4 3 3 3 3 3 4 4 4 4 4 5 5 6 7 7 7 6 5 4 3 3 4 4 4 4 5 5 5 5 5 6 6 7 7 7
5 5 3 2 3 3 4 4 4 4 3 3 2 3 3 4 4 4 5 5 6 6 6 6 6 6 5 5 4 4 4 4 4 4 5 5 6 6 6 6 7 8 8
5 5 3 2 3 4 4 3 2 2 2 2 2 1 2 3 4 4 5 6 6 6 6 7 7 7 7 6 6 5 5 5 4 5 5 6 6 6 7 7 7 8 8
4 5 4 3 4 4 3 2 2 2 2 1 1 2 2 2 2 4 5 5 6 6 5 5 6 6 7 6 6 6 5 5 5 4 5 6 6 7 7 7 8 8 8
4 5 4 4 4 3 2 2 2 2 1 1 1 2 2 1 2 3 3 4 5 5 5 5 5 4 5 6 6 6 5 5 5 5 5 6 6 7 7 7 8 8 9
4 4 3 3 3 2 2 3 2 3 2 1 2 2 2 2 2 2 2 3 3 4 5 4 4 4 4 5 6 5 6 6 6 6 6 6 7 7 7 8 8 9 9
4 3 3 2 3 3 3 2 3 2 1 1 2 2 1 2 2 1 1 1 2 3 3 4 4 3 3 4 4 5 6 6 7 7 7 7 8 8 8 8 9 9 9
3 3 3 3 3 2 3 2 3 3 2 1 1 2 2 2 2 2 1 1 1 1 1 2 2 3 2 3 4 4 5 7 7 8 8 8 8 8 8 9 9 9 9
3 3 3 3 3 2 3 2 2 2 3 2 0 1 1 2 1 1 2 1 1 1 2 2 2 2 1 2 3 4 6 7 8 9 9 9 9 9 9 10 10 10 10
1 2 3 3 3 2 3 3 2 2 2 3 2 1 1 1 1 2 2 2 2 2 2 2 2 2 2 2 3 5 6 7 8 9 9 9 9 10 10 10 10 10 9
0 0 2 2 2 2 3 3 3 3 3 3 2 2 2 2 2 2 2 2 3 3 3 2 2 3 3 3 4 5 6 7 8 9 10 10 10 10 11 11 10 10 10
1 1 1 1 1 2 3 3 3 3 3 3 4 3 3 3 2 2 2 2 2 2 2 2 2 3 3 4 6 7 7 8 9 10 11 11 10 10 11 10 10 10 10
2 2 1 1 2 2 2 3 2 3 3 4 4 4 3 3 3 3 3 2 1 2 2 3 2 3 3 5 7 8 8 10 10 11 11 11 11 11 10 10 10 10 11
2 2 2 1 1 2 2 2 3 3 3 4 4 4 4 3 3 3 3 3 3 2 3 3 2 2 4 6 7 8 9 10 11 12 12 11 11 10 10 10 11 11 11
2 2 2 2 2 2 2 3 2 3 3 4 4 5 4 4 3 3 3 3 3 4 4 3 3 3 4 5 7 8 10 11 11 11 11 11 11 11 11 11 11 12 12
2 3 3 3 3 3 3 3 3 3 4 4 4 5 6 5 4 4 3 3 4 4 5 4 3 3 3 4 6 7 8 9 10 11 12 12 12 12 12 12 12 12 12
2 3 3 3 3 3 3 4 4 4 4 5 5 5 6 5 5 5 4 5 4 5 5 6 3 3 4 4 4 4 6 8 9 11 12 12 12 13 13 13 13 13 13
2 2 2 3 3 3 3 4 4 4 5 5 5 5 5 5 6 5 5 5 4 4 4 5 5 3 3 3 3 4 4 5 8 10 11 12 12 13 13 13 13 13 13
3 3 3 3 4 4 4 4 4 4 4 5 5 5 5 6 7 7 6 6 5 4 4 4 5 4 3 3 2 3 5 4 5 7 9 10 11 12 12 13 13 13 13
3 3 3 3 3 3 4 4 4 4 5 5 5 5 5 6 7 6 5 6 6 5 4 4 5 4 3 3 3 3 5 5 5 3 4 5 6 7 9 11 12 13 13
2 2 3 3 4 4 5 7 5 4 4 5 5 4 4 6 7 8 9 8 7 6 5 5 4 5 5 4 4 4 4 4 5 2 3 5 4 6 6 8 12 14 14
3 3 3 3 4 5 6 6 6 3 4 4 4 4 4 4 5 4 6 8 8 9 9 6 6 6 6 5 4 5 5 5 6 4 3 6 4 6 6 10 13 13 12
3 3 3 4 4 5 6 6 5 3 3 4 4 5 5 5 4 5 4 4 5 6 7 6 6 7 6 6 5 5 6 6 6 4 3 5 4 5 5 8 11 11 11
3 3 3 3 3 5 6 5 4 2 3 4 5 5 5 5 8 8 5 5 6 6 8 10 11 11 12 12 8 3 3 4 6 4 3 3 3 4 5 5 7 9 10
3 2 3 3 3 4 6 5 4 2 3 4 4 5 7 8 9 9 6 6 7 7 5 5 6 8 8 9 10 6 5 5 5 5 3 3 3 2 4 3 3 5 6
Wind_Direction
124 107 88 73 67 72 78 76 76 75 69 66 68 73 69 66 65 61 49 46 48 54 61 68 66 54 44 47 48 42 43 42 40 29 23 18 11 1 351 343 339 337 335
127 122 108 87 65 73 90 91 91 90 73 71 63 63 67 69 68 67 61 51 51 53 57 57 54 48 41 38 40 36 38 32 27 21 16 9 2 357 356 354 349 341 336
129 126 120 102 75 78 94 91 84 82 74 66 62 56 59 62 67 66 65 60 55 49 52 54 51 47 42 39 44 39 37 32 28 20 12 7 1 360 357 351 348 345 340
127 123 124 115 94 86 87 103 93 78 62 49 43 35 48 58 62 67 70 66 62 57 50 51 49 43 40 39 40 38 38 33 27 17 6 1 357 356 352 348 345 342 339
117 122 124 117 105 96 90 102 85 95 86 46 41 47 42 54 58 74 72 67 65 61 55 47 45 42 36 32 28 30 27 24 14 3 358 357 353 348 346 343 341 338 336
109 117 122 118 112 108 96 96 98 79 94 75 69 49 41 45 66 70 71 67 63 60 55 49 41 34 33 28 19 16 11 10 6 0 356 354 348 344 344 346 345 343 340
113 110 118 123 123 128 129 122 115 92 60 40 71 36 19 40 66 65 59 63 56 51 48 44 41 36 23 19 16 12 2 356 352 349 345 342 339 335 335 340 341 339 336
118 116 119 135 135 133 121 114 122 122 77 50 103 101 9 341 357 26 42 71 52 39 34 28 30 29 28 20 4 4 356 346 339 337 335 333 330 328 330 333 332 331 331
122 127 128 129 132 136 145 142 143 140 145 74 66 126 139 228 295 315 348 42 30 19 352 0 7 5 12 13 360 350 347 336 331 330 328 326 326 326 326 328 327 327 328
129 140 143 144 142 139 153 161 150 158 149 159 132 57 131 157 175 294 305 317 348 343 314 308 307 321 343 356 344 338 337 330 325 324 323 322 322 323 324 325 325 325 324
119 140 151 150 153 155 161 160 154 158 163 169 174 158 117 83 123 178 263 300 317 281 271 273 283 286 294 326 326 327 329 326 323 320 318 319 320 321 320 319 319 320 321
79 128 147 152 163 166 174 177 171 169 178 175 178 183 180 171 175 175 228 255 276 274 269 256 254 267 266 290 297 311 317 319 318 317 315 316 317 316 314 314 315 316 317
213 220 164 173 186 188 184 173 169 178 185 186 195 202 204 203 177 172 191 238 267 283 282 266 241 260 267 287 293 299 302 306 308 309 310 311 310 310 310 310 311 312 313
214 196 179 199 206 193 186 175 178 193 189 197 205 203 205 210 191 185 184 187 273 287 272 269 269 247 271 293 293 294 293 296 299 301 303 303 303 303 304 304 305 306 307
200 176 179 191 213 202 190 180 196 204 196 204 209 210 211 215 205 204 195 186 190 251 268 260 267 271 284 287 291 296 291 292 295 295 297 297 295 295 295 297 298 299 300
189 170 185 197 208 209 199 190 205 206 201 214 210 211 218 217 211 205 202 201 197 207 248 251 253 270 284 292 296 295 292 293 295 292 293 294 293 291 291 292 293 292 292
198 199 203 206 216 220 209 201 213 209 213 226 219 215 223 216 212 211 203 202 205 205 243 268 254 266 269 279 299 300 297 293 294 293 292 291 290 288 287 288 289 289 288
216 216 205 209 223 229 218 212 220 215 214 224 227 220 227 219 217 214 208 210 213 210 225 263 274 265 261 266 279 285 293 296 292 293 293 291 288 286 285 286 286 286 285
222 222 211 219 228 230 229 225 220 221 220 223 223 222 226 214 223 219 215 216 220 222 218 244 269 269 272 280 293 288 284 287 293 294 294 289 287 285 283 283 283 283 282
219 221 221 227 232 232 232 230 225 225 229 230 226 225 225 217 223 219 218 218 217 221 221 237 259 270 272 281 279 289 301 290 291 298 293 290 289 289 287 285 284 282 281
228 225 226 238 244 238 235 228 224 226 227 232 233 230 230 229 229 226 224 215 209 215 221 234 253 267 270 277 275 275 287 298 291 275 289 288 287 284 283 283 283 280 279
230 224 229 234 244 250 257 248 235 225 226 228 236 240 241 243 244 245 245 240 221 216 221 229 247 252 263 258 263 271 282 302 300 280 292 289 278 276 275 273 279 280 278
227 234 237 235 244 257 266 263 248 230 227 232 232 236 249 246 247 236 250 254 248 243 236 228 238 247 255 249 253 268 262 264 270 278 294 286 278 276 275 276 281 279 277
223 230 240 242 249 265 273 270 264 247 232 235 232 229 236 246 240 232 229 241 248 250 248 239 234 243 245 244 240 252 263 273 274 266 239 270 280 276 283 279 277 275 277
230 233 240 242 249 269 274 271 266 240 242 247 243 234 233 240 252 252 239 241 254 260 261 252 253 257 263 267 260 257 262 276 284 272 220 245 277 289 286 279 276 277 280
230 237 253 248 247 260 271 273 266 232 249 259 255 246 245 246 254 255 237 233 252 259 251 261 263 266 266 268 265 244 235 251 269 274 224 220 261 296 298 279 283 288 286
Height
1521 1522 1524 1524 1525 1526 1527 1528 1529 1529 1530 1530 1531 1531 1531 1531 1532 1532 1533 1533 1534 1534 1534 1535 1534 1534 1534 1534 1534 1534 1534 1533 1533 1533 1533 1532 1532 1532 1531 1531 1530 1530 1529
1519 1521 1522 1523 1524 1525 1526 1526 1527 1528 1528 1529 1529 1530 1530 1530 1530 1531 1531 1532 1532 1533 1533 1533 1533 1533 1533 1533 1532 1532 1532 1531 1531 1531 1531 1530 1530 1530 1529 1529 1528 1528 1527
1518 1519 1520 1521 1522 1523 1524 1525 1526 1527 1527 1528 1528 1528 1529 1529 1529 1529 1530 1530 1531 1531 1531 1531 1531 1531 1531 1531 1531 1530 1530 1529 1529 1529 1529 1528 1528 1528 1527 1526 1526 1525 1525
1516 1517 1518 1519 1521 1522 1523 1524 1524 1525 1526 1526 1526 1527 1527 1527 1527 1528 1528 1529 1529 1529 1529 1530 1530 1529 1529 1529 1529 1528 1528 1528 1527 1527 1527 1527 1526 1525 1525 1524 1524 1523 1522
1514 1515 1516 1517 1519 1520 1521 1522 1522 1523 1524 1524 1525 1525 1525 1526 1526 1526 1526 1527 1527 1527 1528 1528 1528 1528 1528 1527 1527 1527 1526 1526 1526 1525 1525 1524 1524 1523 1522 1522 1521 1520 1519
1512 1513 1514 1515 1517 1517 1519 1520 1520 1521 1522 1522 1523 1523 1523 1524 1524 1524 1525 1525 1525 1526 1526 1526 1526 1526 1526 1525 1525 1525 1525 1524 1524 1523 1523 1522 1522 1521 1520 1519 1518 1517 1516
1510 1511 1512 1513 1515 1516 1516 1517 1518 1519 1520 1521 1521 1521 1521 1522 1522 1522 1523 1523 1524 1524 1524 1524 1524 1523 1523 1523 1522 1522 1522 1522 1521 1521 1520 1520 1519 1518 1517 1516 1515 1514 1513
1508 1509 1510 1511 1512 1514 1514 1515 1516 1517 1518 1518 1519 1519 1519 1521 1520 1521 1521 1521 1521 1522 1522 1522 1521 1521 1521 1520 1520 1519 1519 1519 1519 1518 1518 1517 1516 1515 1514 1513 1512 1511 1510
1507 1508 1508 1509 1510 1511 1512 1513 1514 1514 1515 1516 1517 1518 1517 1517 1518 1519 1519 1519 1519 1519 1519 1519 1519 1518 1518 1517 1517 1517 1516 1516 1515 1515 1514 1514 1513 1512 1511 1510 1509 1508 1507
1505 1506 1507 1507 1508 1509 1510 1510 1511 1512 1513 1513 1514 1515 1516 1515 1516 1515 1516 1516 1516 1516 1517 1516 1516 1516 1515 1515 1514 1514 1513 1512 1512 1511 1511 1510 1509 1508 1507 1506 1505 1504 1503
1503 1504 1504 1505 1506 1507 1507 1508 1509 1509 1510 1511 1511 1512 1512 1512 1512 1513 1512 1512 1513 1513 1513 1513 1513 1513 1512 1511 1511 1510 1510 1509 1508 1507 1507 1506 1505 1504 1503 1502 1501 1500 1499
1501 1501 1502 1503 1504 1504 1505 1505 1506 1507 1507 1508 1508 1509 1509 1509 1509 1510 1509 1508 1508 1508 1509 1509 1509 1509 1509 1508 1508 1507 1506 1505 1504 1504 1503 1502 1501 1500 1499 1498 1497 1496 1495
1498 1499 1499 1500 1501 1502 1502 1503 1503 1504 1504 1504 1505 1506 1506 1506 1507 1507 1507 1506 1505 1504 1504 1505 1505 1505 1505 1505 1504 1503 1502 1501 1500 1499 1499 1498 1497 1496 1494 1493 1492 1491 1490
1496 1497 1497 1497 1498 1499 1499 1499 1500 1500 1501 1501 1502 1502 1503 1503 1503 1504 1504 1504 1502 1500 1500 1501 1501 1501 1501 1501 1500 1499 1498 1497 1496 1495 1494 1493 1492 1491 1490 1489 1487 1486 1485
1493 1493 1494 1494 1495 1495 1496 1496 1496 1497 1497 1497 1498 1499 1499 1499 1500 1500 1500 1501 1501 1498 1496 1497 1497 1497 1497 1497 1496 1494 1493 1492 1491 1490 1489 1488 1487 1486 1485 1483 1482 1481 1480
1490 1490 1491 1491 1491 1492 1492 1492 1493 1493 1493 1493 1494 1494 1495 1495 1496 1496 1496 1496 1496 1496 1493 1492 1493 1494 1493 1492 1491 1490 1489 1488 1487 1486 1484 1483 1482 1481 1480 1478 1477 1476 1475
1486 1487 1487 1487 1488 1488 1488 1488 1488 1489 1489 1489 1489 1490 1490 1491 1491 1491 1491 1492 1492 1492 1489 1488 1489 1489 1488 1487 1486 1485 1484 1482 1481 1480 1479 1478 1477 1476 1474 1473 1472 1470 1469
1483 1483 1484 1484 1484 1484 1484 1484 1484 1484 1484 1484 1485 1485 1485 1486 1486 1486 1486 1486 1487 1486 1485 1483 1483 1483 1482 1482 1480 1479 1478 1477 1476 1475 1474 1473 1471 1470 1469 1467 1466 1465 1464
1480 1480 1480 1480 1480 1480 1480 1480 1480 1480 1480 1480 1480 1480 1480 1480 1480 1481 1481 1481 1481 1481 1480 1479 1477 1477 1477 1476 1475 1474 1473 1471 1470 1469 1468 1467 1466 1464 1463 1461 1460 1459 1458
1476 1476 1476 1477 1477 1477 1476 1476 1475 1475 1475 1475 1475 1475 1475 1475 1475 1475 1475 1476 1476 1476 1475 1474 1473 1472 1471 1470 1470 1468 1467 1466 1464 1463 1462 1461 1460 1458 1457 1455 1454 1453 1451
1472 1472 1472 1472 1473 1472 1472 1471 1471 1470 1470 1470 1470 1470 1470 1470 1470 1470 1470 1470 1470 1470 1470 1468 1467 1466 1466 1465 1465 1463 1461 1459 1458 1457 1456 1455 1453 1452 1450 1449 1447 1446 1445
1468 1468 1468 1468 1468 1468 1468 1467 1467 1466 1466 1465 1465 1465 1465 1465 1465 1465 1465 1465 1465 1464 1463 1463 1462 1461 1460 1460 1459 1458 1456 1454 1451 1452 1450 1448 1447 1445 1444 1443 1441 1440 1438
1464 1464 1464 1464 1464 1464 1464 1463 1462 1462 1462 1461 1461 1460 1460 1460 1460 1460 1459 1459 1459 1458 1459 1458 1456 1455 1455 1455 1454 1452 1451 1449 1447 1446 1444 1440 1441 1439 1438 1436 1435 1433 1432
1459 1459 1459 1459 1459 1459 1459 1459 1458 1458 1457 1457 1457 1456 1456 1455 1455 1455 1454 1453 1453 1453 1453 1452 1452 1450 1450 1450 1449 1447 1445 1443 1441 1441 1439 1435 1433 1432 1431 1429 1428 1426 1425
1454 1454 1454 1454 1454 1455 1455 1454 1454 1453 1453 1452 1452 1452 1451 1450 1450 1449 1449 1448 1448 1448 1448 1447 1447 1446 1445 1444 1443 1442 1440 1438 1435 1434 1433 1431 1427 1425 1423 1422 1421 1420 1419
1450 1450 1450 1450 1450 1451 1451 1450 1450 1449 1448 1448 1448 1447 1446 1445 1445 1444 1444 1443 1442 1442 1442 1441 1441 1440 1439 1439 1438 1437 1435 1433 1430 1428 1427 1426 1422 1421 1416 1414 1414 1414 1412